XE2OR-10 Weather Reports


time (UTC)temp
C
wind
direction
speed
KPH
gust
KPH
rain 1hr
cm
rain 24hr
cm
rain mn
cm
humidity
%
barometer
mb
20260507113849 21 101 0.0 0.0 0.00 0.00 0.00 84 1018.3
20260507113349 21 37 1.6 3.2 0.00 0.00 0.00 84 1018.5
20260507112849 21 55 1.6 3.2 0.00 0.00 0.00 84 1018.3
20260507112352 21 355 3.2 6.4 0.00 0.00 0.00 84 1018.6
20260507111849 21 31 0.0 0.0 0.00 0.00 0.00 83 1018.5
20260507111352 21 72 1.6 3.2 0.00 0.00 0.00 84 1018.3
20260507110849 21 102 0.0 0.0 0.00 0.00 0.00 84 1018.0
20260507110348 21 4 1.6 4.8 0.00 0.00 0.00 84 1018.2
20260507105849 21 118 0.0 0.0 0.00 0.00 0.00 84 1018.1
20260507105353 21 127 0.0 0.0 0.00 0.00 0.00 83 1018.1
20260507104849 21 130 1.6 3.2 0.00 0.00 0.00 83 1017.8
20260507104352 21 34 3.2 4.8 0.00 0.00 0.00 83 1018.0
20260507103849 21 12 3.2 4.8 0.00 0.00 0.00 83 1018.1
20260507103349 21 11 1.6 3.2 0.00 0.00 0.00 83 1017.8
20260507102849 21 119 0.0 0.0 0.00 0.00 0.00 83 1017.8
20260507102352 21 41 1.6 3.2 0.00 0.00 0.00 83 1017.9
20260507101848 21 107 1.6 3.2 0.00 0.00 0.00 83 1017.9
20260507101352 21 137 0.0 0.0 0.00 0.00 0.00 83 1017.9
20260507100848 21 82 0.0 0.0 0.00 0.00 0.00 83 1017.8
20260507100349 21 147 0.0 0.0 0.00 0.00 0.00 83 1017.7
20260507095849 21 90 1.6 3.2 0.00 0.00 0.00 83 1017.9
20260507095352 21 130 0.0 0.0 0.00 0.00 0.00 82 1017.9
20260507094849 21 144 1.6 3.2 0.00 0.00 0.00 82 1018.0
20260507094352 21 120 0.0 0.0 0.00 0.00 0.00 82 1018.0
20260507093849 21 135 0.0 0.0 0.00 0.00 0.00 82 1018.0
20260507093350 21 136 0.0 0.0 0.00 0.00 0.00 82 1018.1
20260507092849 21 108 0.0 0.0 0.00 0.00 0.00 82 1018.2
20260507092353 21 115 0.0 0.0 0.00 0.00 0.00 82 1018.3
20260507091849 21 127 0.0 0.0 0.00 0.00 0.00 82 1018.3
20260507091353 21 93 3.2 4.8 0.00 0.00 0.00 82 1018.0
20260507090849 21 129 1.6 3.2 0.00 0.00 0.00 82 1017.9
20260507090349 21 82 0.0 0.0 0.00 0.00 0.00 82 1017.9
20260507085848 21 107 1.6 3.2 0.00 0.00 0.00 82 1018.0
20260507085352 21 24 3.2 6.4 0.00 0.00 0.00 82 1017.9
20260507084848 21 8 1.6 4.8 0.00 0.00 0.00 82 1017.7
20260507084352 21 112 0.0 0.0 0.00 0.00 0.00 82 1017.8
20260507083848 21 355 6.4 6.4 0.00 0.00 0.00 82 1017.9
20260507083349 21 131 0.0 0.0 0.00 0.00 0.00 82 1017.8
20260507082849 21 358 3.2 4.8 0.00 0.00 0.00 82 1017.7
20260507082352 21 112 0.0 0.0 0.00 0.00 0.00 82 1017.8
20260507081849 21 44 3.2 4.8 0.00 0.00 0.00 82 1017.9
20260507081352 21 122 0.0 0.0 0.00 0.00 0.00 82 1017.8
20260507080849 21 94 1.6 3.2 0.00 0.00 0.00 82 1017.7
20260507080349 21 129 0.0 0.0 0.00 0.00 0.00 82 1017.9
20260507075849 21 336 3.2 6.4 0.00 0.00 0.00 82 1018.2
20260507075353 22 341 1.6 4.8 0.00 0.00 0.00 82 1018.0
20260507074849 22 77 0.0 0.0 0.00 0.00 0.00 82 1018.0
20260507074353 22 21 3.2 4.8 0.00 0.00 0.00 82 1018.3
20260507073849 22 29 4.8 8.0 0.00 0.00 0.00 82 1018.1
20260507073349 22 72 0.0 0.0 0.00 0.00 0.00 82 1017.8
20260507072848 22 60 1.6 3.2 0.00 0.00 0.00 82 1018.1
20260507072352 22 13 1.6 3.2 0.00 0.00 0.00 82 1017.9
20260507071849 22 5 3.2 4.8 0.00 0.00 0.00 82 1017.6
20260507071352 22 134 1.6 3.2 0.00 0.00 0.00 82 1017.6
20260507070848 22 138 0.0 0.0 0.00 0.00 0.00 82 1017.8
20260507070349 22 99 1.6 3.2 0.00 0.00 0.00 81 1017.9
20260507065849 23 24 0.0 0.0 0.00 0.00 0.00 81 1018.3
20260507065352 23 42 1.6 3.2 0.00 0.00 0.00 82 1018.3
20260507064849 23 36 0.0 0.0 0.00 0.00 0.00 82 1018.3
20260507064352 23 90 0.0 0.0 0.00 0.00 0.00 82 1018.4
20260507063849 23 38 3.2 4.8 0.00 0.00 0.00 82 1018.5
20260507063349 23 68 1.6 3.2 0.00 0.00 0.00 82 1018.4
20260507062849 23 355 1.6 3.2 0.00 0.00 0.00 82 1018.3
20260507062352 23 9 3.2 4.8 0.00 0.00 0.00 82 1018.0
20260507061849 24 21 3.2 4.8 0.00 0.00 0.00 82 1017.8
20260507061519 24 74 0.0 0.0 0.00 0.00 0.00 82 1017.9
20260507061353 24 74 0.0 0.0 0.00 0.00 0.00 82 1017.9
20260507060849 24 21 1.6 3.2 0.00 0.00 0.00 82 1017.9
20260507060349 24 125 0.0 0.0 0.00 0.00 0.00 82 1017.8
20260507055851 25 166 3.2 6.4 0.00 0.00 0.00 82 1017.6
20260507055352 25 103 1.6 3.2 0.00 0.00 0.00 82 1017.9
20260507054848 25 65 4.8 6.4 0.00 0.00 0.00 82 1017.6
20260507054352 25 27 3.2 3.2 0.00 0.00 0.00 82 1017.7
20260507053849 25 1 1.6 4.8 0.00 0.00 0.00 82 1017.5
20260507053349 25 8 0.0 0.0 0.00 0.00 0.00 83 1017.9
20260507052849 25 89 0.0 0.0 0.00 0.00 0.00 83 1017.8
20260507052352 25 3 3.2 6.4 0.00 0.00 0.00 83 1017.7
20260507051849 26 334 3.2 4.8 0.00 0.00 0.00 83 1017.4
20260507051352 26 119 1.6 3.2 0.00 0.00 0.00 83 1017.5
20260507050849 26 62 3.2 6.4 0.00 0.00 0.00 82 1017.5
20260507050348 26 37 3.2 3.2 0.00 0.00 0.00 82 1017.5
20260507045849 26 52 3.2 4.8 0.00 0.00 0.00 82 1017.5
20260507045352 26 51 0.0 0.0 0.00 0.00 0.00 82 1017.5
20260507044848 26 107 0.0 0.0 0.00 0.00 0.00 82 1017.3
20260507044352 26 145 0.0 0.0 0.00 0.00 0.00 83 1017.4
20260507043848 26 146 0.0 0.0 0.00 0.00 0.00 83 1017.1
20260507043349 26 144 0.0 0.0 0.00 0.00 0.00 82 1017.0
20260507042848 26 146 0.0 0.0 0.00 0.00 0.00 82 1016.9
20260507042352 26 143 0.0 0.0 0.00 0.00 0.00 82 1016.8
20260507041848 26 150 0.0 0.0 0.00 0.00 0.00 82 1016.8
20260507041352 26 143 0.0 0.0 0.00 0.00 0.00 82 1016.8
20260507040849 26 141 0.0 0.0 0.00 0.00 0.00 82 1016.4
20260507040348 26 147 0.0 0.0 0.00 0.00 0.00 81 1016.7
20260507035849 27 148 0.0 0.0 0.00 0.00 0.00 81 1016.6
20260507035353 27 148 0.0 0.0 0.00 0.00 0.00 81 1016.2
20260507034854 27 143 0.0 0.0 0.00 0.00 0.00 81 1016.0
20260507034849 27 143 0.0 0.0 0.00 0.00 0.00 81 1016.3
20260507034352 27 137 0.0 0.0 0.00 0.00 0.00 81 1016.1
20260507033848 27 146 0.0 0.0 0.00 0.00 0.00 81 1016.1
20260507033349 27 152 0.0 0.0 0.00 0.00 0.00 80 1015.8
20260507032848 27 150 0.0 0.0 0.00 0.00 0.00 80 1015.8
20260507032352 27 152 0.0 0.0 0.00 0.00 0.00 80 1015.7
20260507031849 27 119 0.0 0.0 0.00 0.00 0.00 80 1015.9
20260507031352 27 159 0.0 0.0 0.00 0.00 0.00 80 1015.7
20260507030849 27 159 0.0 0.0 0.00 0.00 0.00 80 1015.7
20260507030348 27 135 0.0 0.0 0.00 0.00 0.00 79 1015.7
20260507025849 28 150 0.0 0.0 0.00 0.00 0.00 79 1015.4
20260507025353 28 354 1.6 3.2 0.00 0.00 0.00 79 1015.3
20260507024849 28 64 1.6 3.2 0.00 0.00 0.00 79 1015.4
20260507024352 28 116 0.0 0.0 0.00 0.00 0.00 78 1015.2
20260507023848 28 69 0.0 0.0 0.00 0.00 0.00 78 1015.2
20260507023349 28 152 0.0 0.0 0.00 0.00 0.00 78 1015.2
20260507022848 28 145 0.0 0.0 0.00 0.00 0.00 78 1015.3
20260507022352 28 4 1.6 3.2 0.00 0.00 0.00 77 1015.1
20260507021849 28 14 3.2 4.8 0.00 0.00 0.00 77 1015.2
20260507021352 28 68 0.0 0.0 0.00 0.00 0.00 77 1015.0
20260507020849 28 347 4.8 6.4 0.00 0.00 0.00 77 1015.0
20260507020348 28 105 0.0 0.0 0.00 0.00 0.00 77 1014.6
20260507015849 28 44 1.6 3.2 0.00 0.00 0.00 77 1014.6
20260507015353 28 66 0.0 0.0 0.00 0.00 0.00 77 1014.6
20260507014849 29 353 6.4 8.0 0.00 0.00 0.00 76 1014.9
20260507014352 29 22 3.2 4.8 0.00 0.00 0.00 76 1014.5
20260507013848 29 2 9.7 9.7 0.00 0.00 0.00 76 1014.3
20260507013349 29 38 3.2 6.4 0.00 0.00 0.00 75 1014.4
20260507012848 29 65 1.6 3.2 0.00 0.00 0.00 75 1014.3
20260507012352 29 73 0.0 0.0 0.00 0.00 0.00 75 1014.3
20260507011849 30 2 4.8 8.0 0.00 0.00 0.00 74 1014.4
20260507011352 30 65 1.6 4.8 0.00 0.00 0.00 74 1014.2
20260507010849 30 44 1.6 4.8 0.00 0.00 0.00 74 1013.8
20260507010349 30 11 4.8 8.0 0.00 0.00 0.00 74 1013.9
20260507005848 30 61 1.6 4.8 0.00 0.00 0.00 74 1013.8
20260507005352 30 68 3.2 4.8 0.00 0.00 0.00 73 1013.9
20260507004848 30 349 3.2 4.8 0.00 0.00 0.00 74 1013.9
20260507004352 30 329 6.4 9.7 0.00 0.00 0.00 73 1013.7
20260507003850 30 18 1.6 3.2 0.00 0.00 0.00 74 1013.9
20260507003349 30 357 6.4 8.0 0.00 0.00 0.00 74 1013.9
20260507002849 30 91 4.8 6.4 0.00 0.00 0.00 74 1013.6
20260507002352 30 49 8.0 16.1 0.00 0.00 0.00 74 1013.3
20260507001849 30 7 3.2 6.4 0.00 0.00 0.00 73 1013.5
20260507001353 31 30 4.8 6.4 0.00 0.00 0.00 72 1013.3
20260507000849 31 38 6.4 9.7 0.00 0.00 0.00 73 1013.1
20260507000350 31 317 4.8 6.4 0.00 0.00 0.00 70 1013.1
20260506235848 31 168 1.6 4.8 0.00 0.00 0.00 69 1013.3
20260506235352 31 38 3.2 6.4 0.00 0.00 0.00 71 1013.3
20260506234848 32 102 1.6 3.2 0.00 0.00 0.00 69 1013.4
20260506234352 32 71 3.2 6.4 0.00 0.00 0.00 70 1013.2
20260506233849 32 293 6.4 8.0 0.00 0.00 0.00 70 1013.0
20260506233349 32 194 1.6 3.2 0.00 0.00 0.00 69 1012.9
20260506232849 32 141 4.8 6.4 0.00 0.00 0.00 70 1012.8
20260506232352 32 77 0.0 0.0 0.00 0.00 0.00 69 1012.9
20260506231849 32 338 3.2 4.8 0.00 0.00 0.00 70 1012.9
20260506231352 32 34 4.8 8.0 0.00 0.00 0.00 69 1012.6
20260506230849 32 67 3.2 4.8 0.00 0.00 0.00 70 1012.3
20260506230349 32 351 3.2 4.8 0.00 0.00 0.00 69 1012.4
20260506225849 32 21 4.8 9.7 0.00 0.00 0.00 68 1012.4
20260506225352 32 37 1.6 3.2 0.00 0.00 0.00 70 1012.3
20260506224848 32 347 6.4 6.4 0.00 0.00 0.00 70 1012.4
20260506224352 32 129 3.2 8.0 0.00 0.00 0.00 69 1012.4
20260506223848 32 171 1.6 3.2 0.00 0.00 0.00 69 1012.4
20260506223349 32 78 3.2 6.4 0.00 0.00 0.00 70 1012.4
20260506222849 32 82 3.2 6.4 0.00 0.00 0.00 70 1012.4
20260506222352 31 357 14.5 17.7 0.00 0.00 0.00 70 1012.3
20260506221849 31 20 3.2 4.8 0.00 0.00 0.00 72 1012.3
20260506221352 31 64 6.4 11.3 0.00 0.00 0.00 72 1012.5
20260506220849 31 325 4.8 6.4 0.00 0.00 0.00 72 1012.3
20260506220348 32 323 3.2 6.4 0.00 0.00 0.00 69 1012.1
20260506215849 33 302 1.6 3.2 0.00 0.00 0.00 68 1011.9
20260506215353 32 45 8.0 14.5 0.00 0.00 0.00 69 1012.1
20260506214850 33 132 3.2 4.8 0.00 0.00 0.00 69 1012.1
20260506214352 32 335 3.2 8.0 0.00 0.00 0.00 69 1012.0
20260506213848 32 335 4.8 6.4 0.00 0.00 0.00 70 1012.3
20260506213349 33 6 6.4 8.0 0.00 0.00 0.00 69 1012.2
20260506212849 32 48 6.4 9.7 0.00 0.00 0.00 70 1012.1
20260506212352 33 359 6.4 11.3 0.00 0.00 0.00 68 1012.2
20260506211849 32 17 4.8 8.0 0.00 0.00 0.00 69 1012.3
20260506211352 32 40 1.6 3.2 0.00 0.00 0.00 71 1012.7
20260506210849 31 73 4.8 6.4 0.00 0.00 0.00 71 1012.5
20260506210348 32 116 6.4 9.7 0.00 0.00 0.00 70 1012.5
20260506205849 32 98 3.2 4.8 0.00 0.00 0.00 69 1012.6
20260506205353 32 319 4.8 8.0 0.00 0.00 0.00 70 1012.4
20260506204849 33 23 3.2 3.2 0.00 0.00 0.00 68 1012.6
20260506204352 33 356 6.4 8.0 0.00 0.00 0.00 69 1012.6
20260506203848 32 70 3.2 4.8 0.00 0.00 0.00 70 1012.6
20260506203349 32 44 9.7 17.7 0.00 0.00 0.00 70 1012.7
20260506202848 32 141 3.2 6.4 0.00 0.00 0.00 69 1012.6
20260506202352 33 30 6.4 9.7 0.00 0.00 0.00 69 1012.8
20260506201849 33 355 6.4 8.0 0.00 0.00 0.00 67 1012.9
20260506201352 33 172 1.6 3.2 0.00 0.00 0.00 68 1012.9
20260506200849 32 350 9.7 11.3 0.00 0.00 0.00 72 1012.8
20260506200348 32 343 6.4 9.7 0.00 0.00 0.00 69 1013.1
20260506195849 32 88 3.2 4.8 0.00 0.00 0.00 71 1013.3
20260506195352 32 77 1.6 3.2 0.00 0.00 0.00 72 1013.0
20260506194849 32 17 1.6 3.2 0.00 0.00 0.00 73 1013.0
20260506194352 33 166 0.0 0.0 0.00 0.00 0.00 71 1013.2
20260506193848 32 82 1.6 3.2 0.00 0.00 0.00 72 1013.4
20260506193349 32 73 1.6 4.8 0.00 0.00 0.00 73 1013.4
20260506192848 31 146 0.0 0.0 0.00 0.00 0.00 75 1013.4
20260506192352 32 45 4.8 11.3 0.00 0.00 0.00 73 1013.4
20260506191849 32 167 1.6 3.2 0.00 0.00 0.00 73 1013.7
20260506191352 32 21 8.0 11.3 0.00 0.00 0.00 74 1013.4
20260506190849 31 58 1.6 3.2 0.00 0.00 0.00 74 1013.5
20260506190349 32 17 3.2 4.8 0.00 0.00 0.00 72 1013.6
20260506185849 32 11 3.2 6.4 0.00 0.00 0.00 72 1013.6
20260506185352 31 34 3.2 4.8 0.00 0.00 0.00 73 1013.4
20260506184849 31 334 1.6 6.4 0.00 0.00 0.00 75 1013.9
20260506184353 32 93 3.2 6.4 0.00 0.00 0.00 74 1013.8
20260506183849 31 25 3.2 6.4 0.00 0.00 0.00 74 1013.9
20260506183349 31 18 4.8 6.4 0.00 0.00 0.00 75 1013.8
20260506182848 31 118 1.6 4.8 0.00 0.00 0.00 75 1013.9
20260506182352 31 311 3.2 6.4 0.00 0.00 0.00 76 1013.9
20260506181848 32 75 3.2 4.8 0.00 0.00 0.00 74 1013.9
20260506181352 32 20 3.2 4.8 0.00 0.00 0.00 72 1014.0
20260506180849 31 145 0.0 0.0 0.00 0.00 0.00 74 1014.2
20260506180349 31 141 3.2 4.8 0.00 0.00 0.00 75 1014.2
20260506175849 31 11 4.8 6.4 0.00 0.00 0.00 76 1014.2
20260506175352 31 2 4.8 6.4 0.00 0.00 0.00 75 1014.0
20260506174849 32 25 1.6 3.2 0.00 0.00 0.00 75 1014.4
20260506174352 32 41 1.6 3.2 0.00 0.00 0.00 75 1014.5
20260506173849 31 127 0.0 0.0 0.00 0.00 0.00 76 1014.3
20260506173349 31 170 0.0 0.0 0.00 0.00 0.00 77 1014.5
20260506172848 31 131 3.2 3.2 0.00 0.00 0.00 77 1014.5
20260506172352 31 4 1.6 4.8 0.00 0.00 0.00 76 1014.4
20260506171848 31 138 6.4 8.0 0.00 0.00 0.00 76 1014.3
20260506171352 32 11 3.2 4.8 0.00 0.00 0.00 75 1014.3
20260506170849 31 110 1.6 3.2 0.00 0.00 0.00 75 1014.4
20260506170349 31 71 3.2 4.8 0.00 0.00 0.00 76 1014.5
20260506165849 31 35 1.6 4.8 0.00 0.00 0.00 76 1014.5
20260506165352 31 3 3.2 6.4 0.00 0.00 0.00 75 1014.4
20260506164849 31 130 0.0 0.0 0.00 0.00 0.00 75 1014.5
20260506164353 31 138 0.0 0.0 0.00 0.00 0.00 76 1014.4
20260506163849 31 29 1.6 3.2 0.00 0.00 0.00 77 1014.3
20260506163349 30 22 3.2 4.8 0.00 0.00 0.00 78 1014.2
20260506162848 30 13 1.6 3.2 0.00 0.00 0.00 79 1014.2
20260506162352 30 114 0.0 0.0 0.00 0.00 0.00 79 1014.3
20260506161848 30 33 1.6 3.2 0.00 0.00 0.00 80 1014.2
20260506161352 29 146 0.0 0.0 0.00 0.00 0.00 81 1014.2
20260506160849 29 65 1.6 3.2 0.00 0.00 0.00 81 1014.3
20260506160349 29 180 0.0 0.0 0.00 0.00 0.00 81 1014.2
20260506155849 29 101 0.0 0.0 0.00 0.00 0.00 81 1014.3
20260506155352 28 145 0.0 0.0 0.00 0.00 0.00 82 1014.1
20260506154849 28 146 0.0 0.0 0.00 0.00 0.00 82 1014.1
20260506154352 28 40 0.0 0.0 0.00 0.00 0.00 82 1013.7
20260506153849 29 142 3.2 4.8 0.00 0.00 0.00 81 1013.7
20260506153349 29 123 0.0 0.0 0.00 0.00 0.00 81 1014.0
20260506152848 29 150 0.0 0.0 0.00 0.00 0.00 81 1013.5
20260506152352 28 136 1.6 4.8 0.00 0.00 0.00 82 1013.6
20260506151848 28 164 0.0 0.0 0.00 0.00 0.00 83 1013.6
20260506151352 27 152 0.0 0.0 0.00 0.00 0.00 84 1013.5
20260506150848 27 151 0.0 0.0 0.00 0.00 0.00 84 1013.4
20260506150349 27 118 0.0 0.0 0.00 0.00 0.00 85 1013.5
20260506145849 27 195 0.0 0.0 0.00 0.00 0.00 86 1013.6
20260506145352 26 97 4.8 6.4 0.00 0.00 0.00 86 1013.2
20260506144849 27 136 1.6 4.8 0.00 0.00 0.00 86 1013.4
20260506144352 26 181 0.0 0.0 0.00 0.00 0.00 87 1013.5
20260506143849 26 171 0.0 0.0 0.00 0.00 0.00 88 1013.4
20260506143349 26 179 0.0 0.0 0.00 0.00 0.00 88 1013.5
20260506142849 25 156 3.2 4.8 0.00 0.00 0.00 89 1013.2
20260506142352 25 152 0.0 0.0 0.00 0.00 0.00 90 1013.6
20260506141848 25 149 1.6 4.8 0.00 0.00 0.00 90 1013.4
20260506141352 25 146 0.0 0.0 0.00 0.00 0.00 91 1013.5
20260506140848 25 130 1.6 3.2 0.00 0.00 0.00 91 1013.5
20260506140349 25 150 1.6 3.2 0.00 0.00 0.00 92 1013.3
20260506135849 25 139 3.2 4.8 0.00 0.00 0.00 92 1013.7
20260506135352 25 123 0.0 0.0 0.00 0.00 0.00 92 1013.5
20260506134849 25 133 0.0 0.0 0.00 0.00 0.00 92 1013.4
20260506134352 25 146 0.0 0.0 0.00 0.00 0.00 91 1013.6
20260506133849 25 152 0.0 0.0 0.00 0.00 0.00 91 1013.7
20260506133348 25 152 0.0 0.0 0.00 0.00 0.00 90 1013.4
20260506132849 25 166 0.0 0.0 0.00 0.00 0.00 91 1013.2
20260506132353 25 150 0.0 0.0 0.00 0.00 0.00 91 1013.3
20260506131849 25 151 0.0 0.0 0.00 0.00 0.00 91 1013.3
20260506131352 25 148 0.0 0.0 0.00 0.00 0.00 91 1013.3
20260506130848 25 152 0.0 0.0 0.00 0.00 0.00 91 1013.2
20260506130349 25 145 0.0 0.0 0.00 0.00 0.00 91 1013.1
20260506125848 25 157 0.0 0.0 0.00 0.00 0.00 91 1013.2
20260506125352 25 167 0.0 0.0 0.00 0.00 0.00 91 1013.2
20260506124849 25 153 1.6 3.2 0.00 0.00 0.00 91 1013.3
20260506124352 25 150 0.0 0.0 0.00 0.00 0.00 91 1012.9
20260506123849 25 163 0.0 0.0 0.00 0.00 0.00 91 1013.0
20260506123348 25 163 0.0 0.0 0.00 0.00 0.00 91 1012.8
20260506122849 25 142 1.6 3.2 0.00 0.00 0.00 90 1012.8
20260506122352 25 147 0.0 0.0 0.00 0.00 0.00 90 1012.8
20260506121848 25 152 0.0 0.0 0.00 0.00 0.00 90 1013.1
20260506121352 25 150 0.0 0.0 0.00 0.00 0.00 90 1012.9
20260506120849 25 143 0.0 0.0 0.00 0.00 0.00 90 1012.8
20260506120349 25 155 0.0 0.0 0.00 0.00 0.00 90 1012.8
20260506115849 25 146 0.0 0.0 0.00 0.00 0.00 90 1013.0
20260506115352 25 154 0.0 0.0 0.00 0.00 0.00 90 1012.8
20260506114849 25 153 0.0 0.0 0.00 0.00 0.00 90 1012.7
20260506114352 25 146 0.0 0.0 0.00 0.00 0.00 89 1012.4